Flag for France Weather past 2 weeks in Reims, France

Now
75 °F

Clear.


Feels Like: 77 °F
Forecast: 51 / 64 °F
Wind: 6 mph from Southwest

Location: Chalons-Vatry

Current Time: Sep 20, 2014 at 2:41:25 PM

Latest Report: Sep 20, 2014 at 2:00 PM


Visibility: N/A

Pressure: 30.01 "Hg

Humidity: 61%

Dew point: 61 °F

Location of ReimsLocation

Historic Weather in Reims — Graph

°F

Reims temperature yesterday

Maximum temperature yesterday: 75 °F (at 1:00 PM)
Minimum temperature yesterday: 57 °F (at 6:00 AM)
Average temperature yesterday: 65 °F

Past Weeks' High & Low Weather Summary

 TemperatureHumidityPressure
High81 °F (Sep 16, 5:00 PM)100% (Sep 6, 8:00 AM)30.18 "Hg (Sep 6, 8:00 AM)
Low45 °F (Sep 11, 3:30 AM)45% (Sep 16, 5:00 PM)29.77 "Hg (Sep 17, 5:30 PM)
Average63 °F79%29.99 "Hg
* Reported Sep 5 1:00 PM — Sep 20 1:30 PM, Reims, Weather by CustomWeather, © 2014

Note: Actual official high and low records may vary slightly from our data, if they occured in-between our weather recording intervals... More about our weather records

Advertising

Reims weather history for previous 24 hours

 ConditionsComfort  
Time TempWeatherWind HumidityBarometerVisibility
1:30 PM
Sep 20
73 °FClear.7 mph61%30.01 "HgN/A
1:00 PM73 °FClear.7 mph65%30.01 "HgN/A
12:30 PM72 °FClear.6 mph65%30.01 "HgN/A
12:00 PM72 °FClear.5 mph69%30.01 "HgN/A
11:30 AM70 °FClear.5 mph73%30.01 "HgN/A
11:00 AM68 °FClear.6 mph78%30.01 "HgN/A
10:30 AM64 °FClear.8 mph88%29.98 "HgN/A
10:00 AM63 °FClear.7 mph100%29.98 "HgN/A
9:30 AM61 °FFog.6 mph100%29.98 "HgN/A
9:00 AM57 °FFog.3 mph94%29.98 "Hg0 mi
8:30 AM54 °FFog.1 mph100%29.98 "Hg0 mi
8:00 AM54 °FFog.5 mph94%29.98 "Hg1 mi
7:30 AM54 °FFog.7 mph100%29.98 "Hg0 mi
7:00 AM54 °FFog.5 mph100%29.95 "Hg0 mi
6:30 AM55 °FFog.6 mph94%29.95 "Hg0 mi
6:00 AM55 °FFog.7 mph100%29.95 "Hg1 mi
5:30 AM55 °FFog.6 mph100%29.95 "Hg1 mi
5:00 AM55 °FFog.6 mph100%29.95 "Hg2 mi
4:30 AM55 °FFog.6 mph100%29.95 "Hg1 mi
4:00 AM55 °FFog.6 mph100%29.95 "Hg3 mi
3:00 AM57 °FClear.7 mph94%29.95 "Hg6 mi
2:30 AM57 °FClear.6 mph94%29.95 "HgN/A
2:00 AM57 °FLight fog.3 mph100%29.95 "Hg3 mi
1:30 AM57 °FClear.6 mph100%29.95 "HgN/A
1:00 AM57 °FClear.7 mph100%29.95 "HgN/A
12:30 AM59 °FClear.6 mph94%29.98 "HgN/A
12:00 AM59 °FClear.6 mph94%29.95 "HgN/A
11:30 PM
Sep 19
59 °FClear.8 mph94%29.95 "HgN/A
11:00 PM59 °FClear.7 mph94%29.95 "HgN/A
10:30 PM59 °FClear.6 mph94%29.95 "HgN/A
10:00 PM61 °FClear.5 mph88%29.95 "HgN/A
9:30 PM61 °FClear.8 mph88%29.95 "HgN/A
9:00 PM61 °FClear.7 mph88%29.95 "HgN/A
8:30 PM63 °FClear.7 mph83%29.92 "HgN/A
8:00 PM64 °FClear.10 mph83%29.92 "HgN/A
7:30 PM66 °FClear.9 mph78%29.92 "HgN/A
7:00 PM68 °FClear.8 mph78%29.89 "HgN/A
6:30 PM72 °FClear.9 mph69%29.89 "HgN/A
6:00 PM72 °FClear.10 mph69%29.89 "HgN/A
5:30 PM72 °FClear.12 mph69%29.89 "HgN/A
5:00 PM72 °FClear.15 mph69%29.89 "HgN/A
4:30 PM72 °FClear.14 mph73%29.89 "HgN/A
4:00 PM72 °FClear.12 mph69%29.89 "HgN/A
3:30 PM73 °FPartly sunny.15 mph69%29.89 "HgN/A
3:00 PM75 °FPartly sunny.13 mph65%29.89 "HgN/A
2:30 PM75 °FClear.8 mph65%29.89 "HgN/A
2:00 PM75 °FClear.9 mph65%29.89 "HgN/A
Weather by CustomWeather, © 2014

See weather overviewHow to use our weather pages